STARLINK-1159 (45057 NORAD) Tracking and Keplerian Element Data

This shows tracking and keplerian element data for the satellite.

Feedback or suggestion? Click here.




ElementValue
Catalog45057
NameSTARLINK-1159
Epoch Orbit176
Epoch Day189.91668981
Epoch Year2020
RAAN222.6759
Inclination52.9994
Eccentricity0.0001421
Argument of Perigee107.7329
Mean Anonmoly327.5105
Mean Motion15.05561738
Decay Rate0.00030673
L11 45057U 20006P 20189.91668981 .00030673 00000-0 21162-2 0 9990
L22 45057 52.9994 222.6759 0001421 107.7329 327.5105 15.05561738 1769

Live tracking and technical data element details for STARLINK-1159 (NORAD 45057). STARLINK-1159 can be tracked NOW for your location showing map with azimuth and elevation plus other details from your city location.

Track the satellite on the map from your city or location and see movement details for azimuth, elevation, latitude, longitude, range, height, and movement on the map or in text.







IsCatalogInMostPopularTable: catalog: 45057, numindb: 28
Update: records affected: 1



GetName: 45057 STARLINK-1159

Hit Count: updated at: Fri, 10 Jul 2020 03:34:39 GMT